Year,Month,Day,Hour,Minute,Value (Times are PST for temperature in C)
2010,08,16,00,00,19.80
2010,08,16,00,01,19.70
2010,08,16,00,02,19.80
2010,08,16,00,03,19.80
2010,08,16,00,04,19.80
2010,08,16,00,05,19.80
2010,08,16,00,06,19.80
2010,08,16,00,07,19.80
2010,08,16,00,08,19.80
2010,08,16,00,09,19.70
2010,08,16,00,10,19.70
2010,08,16,00,11,19.70
2010,08,16,00,12,19.60
2010,08,16,00,13,19.60
2010,08,16,00,14,19.60
2010,08,16,00,15,19.60
2010,08,16,00,16,19.60
2010,08,16,00,17,19.60
2010,08,16,00,18,19.60
2010,08,16,00,19,19.60
2010,08,16,00,20,19.60
2010,08,16,00,21,19.60
2010,08,16,00,22,19.60
2010,08,16,00,23,19.60
2010,08,16,00,24,19.60
2010,08,16,00,25,19.60
2010,08,16,00,26,19.60
2010,08,16,00,27,19.60
2010,08,16,00,28,19.60
2010,08,16,00,29,19.60
2010,08,16,00,30,19.50
2010,08,16,00,31,19.50
2010,08,16,00,32,19.50
2010,08,16,00,33,19.40
2010,08,16,00,34,19.40
2010,08,16,00,35,19.40
2010,08,16,00,36,19.40
2010,08,16,00,37,19.40
2010,08,16,00,38,19.30
2010,08,16,00,39,19.30
2010,08,16,00,40,19.30
2010,08,16,00,41,19.40
2010,08,16,00,42,19.40
2010,08,16,00,43,19.40
2010,08,16,00,44,19.30
2010,08,16,00,45,19.30
2010,08,16,00,46,19.30
2010,08,16,00,47,19.30
2010,08,16,00,48,19.30
2010,08,16,00,49,19.30
2010,08,16,00,50,19.30
2010,08,16,00,51,19.30
2010,08,16,00,52,19.30
2010,08,16,00,53,19.30
2010,08,16,00,54,19.30
2010,08,16,00,55,19.30
2010,08,16,00,56,19.30
2010,08,16,00,57,19.30
2010,08,16,00,58,19.30
2010,08,16,00,59,19.30
2010,08,16,01,00,19.30
2010,08,16,01,01,19.30
2010,08,16,01,02,19.40
2010,08,16,01,03,19.40
2010,08,16,01,04,19.40
2010,08,16,01,05,19.50
2010,08,16,01,06,19.50
2010,08,16,01,07,19.50
2010,08,16,01,08,19.50
2010,08,16,01,09,19.50
2010,08,16,01,10,19.50
2010,08,16,01,11,19.50
2010,08,16,01,12,19.50
2010,08,16,01,13,19.50
2010,08,16,01,14,19.50
2010,08,16,01,15,19.50
2010,08,16,01,16,19.50
2010,08,16,01,17,19.50
2010,08,16,01,18,19.50
2010,08,16,01,19,19.50
2010,08,16,01,20,19.50
2010,08,16,01,21,19.60
2010,08,16,01,22,19.60
2010,08,16,01,23,19.50
2010,08,16,01,24,19.50
2010,08,16,01,25,19.50
2010,08,16,01,26,19.40
2010,08,16,01,27,19.40
2010,08,16,01,28,19.40
2010,08,16,01,29,19.40
2010,08,16,01,30,19.30
2010,08,16,01,31,19.30
2010,08,16,01,32,19.30
2010,08,16,01,33,19.30
2010,08,16,01,34,19.30
2010,08,16,01,35,19.20
2010,08,16,01,36,19.20
2010,08,16,01,37,19.20
2010,08,16,01,38,19.20
2010,08,16,01,39,19.20
2010,08,16,01,40,19.10
2010,08,16,01,41,19.10
2010,08,16,01,42,19.00
2010,08,16,01,43,19.00
2010,08,16,01,44,19.00
2010,08,16,01,45,19.00
2010,08,16,01,46,19.00
2010,08,16,01,47,19.00
2010,08,16,01,48,19.00
2010,08,16,01,49,19.00
2010,08,16,01,50,19.00
2010,08,16,01,51,19.10
2010,08,16,01,52,19.10
2010,08,16,01,53,19.10
2010,08,16,01,54,19.10
2010,08,16,01,55,19.10
2010,08,16,01,56,19.10
2010,08,16,01,57,19.10
2010,08,16,01,58,19.10
2010,08,16,01,59,19.10
2010,08,16,02,00,19.00
2010,08,16,02,01,19.00
2010,08,16,02,02,19.00
2010,08,16,02,03,18.90
2010,08,16,02,04,18.90
2010,08,16,02,05,18.90
2010,08,16,02,06,18.90
2010,08,16,02,07,18.80
2010,08,16,02,08,18.80
2010,08,16,02,09,18.80
2010,08,16,02,10,18.80
2010,08,16,02,11,18.80
2010,08,16,02,12,18.80
2010,08,16,02,13,18.70
2010,08,16,02,14,18.70
2010,08,16,02,15,18.70
2010,08,16,02,16,18.70
2010,08,16,02,17,18.60
2010,08,16,02,18,18.60
2010,08,16,02,19,18.50
2010,08,16,02,20,18.50
2010,08,16,02,21,18.50
2010,08,16,02,22,18.40
2010,08,16,02,23,18.40
2010,08,16,02,24,18.30
2010,08,16,02,25,18.30
2010,08,16,02,26,18.30
2010,08,16,02,27,18.30
2010,08,16,02,28,18.30
2010,08,16,02,29,18.20
2010,08,16,02,30,18.20
2010,08,16,02,31,18.20
2010,08,16,02,32,18.20
2010,08,16,02,33,18.20
2010,08,16,02,34,18.20
2010,08,16,02,35,18.20
2010,08,16,02,36,18.20
2010,08,16,02,37,18.30
2010,08,16,02,38,18.20
2010,08,16,02,39,18.20
2010,08,16,02,40,18.20
2010,08,16,02,41,18.20
2010,08,16,02,42,18.30
2010,08,16,02,43,18.30
2010,08,16,02,44,18.30
2010,08,16,02,45,18.30
2010,08,16,02,46,18.30
2010,08,16,02,47,18.30
2010,08,16,02,48,18.30
2010,08,16,02,49,18.30
2010,08,16,02,50,18.20
2010,08,16,02,51,18.20
2010,08,16,02,52,18.20
2010,08,16,02,53,18.10
2010,08,16,02,54,18.10
2010,08,16,02,55,18.10
2010,08,16,02,56,18.10
2010,08,16,02,57,18.10
2010,08,16,02,58,18.10
2010,08,16,02,59,18.10
2010,08,16,03,00,18.10
2010,08,16,03,01,18.10
2010,08,16,03,02,18.10
2010,08,16,03,03,18.10
2010,08,16,03,04,18.10
2010,08,16,03,05,18.00
2010,08,16,03,06,18.00
2010,08,16,03,07,18.00
2010,08,16,03,08,18.00
2010,08,16,03,09,17.90
2010,08,16,03,10,17.90
2010,08,16,03,11,17.90
2010,08,16,03,12,17.90
2010,08,16,03,13,17.90
2010,08,16,03,14,17.90
2010,08,16,03,15,17.90
2010,08,16,03,16,17.90
2010,08,16,03,17,17.90
2010,08,16,03,18,17.90
2010,08,16,03,19,17.90
2010,08,16,03,20,17.90
2010,08,16,03,21,17.90
2010,08,16,03,22,17.80
2010,08,16,03,23,17.80
2010,08,16,03,24,17.80
2010,08,16,03,25,17.80
2010,08,16,03,26,17.80
2010,08,16,03,27,17.80
2010,08,16,03,28,17.80
2010,08,16,03,29,17.80
2010,08,16,03,30,17.80
2010,08,16,03,31,17.80
2010,08,16,03,32,17.80
2010,08,16,03,33,17.70
2010,08,16,03,34,17.70
2010,08,16,03,35,17.70
2010,08,16,03,36,17.70
2010,08,16,03,37,17.70
2010,08,16,03,38,17.60
2010,08,16,03,39,17.60
2010,08,16,03,40,17.60
2010,08,16,03,41,17.50
2010,08,16,03,42,17.50
2010,08,16,03,43,17.50
2010,08,16,03,44,17.40
2010,08,16,03,45,17.40
2010,08,16,03,46,17.40
2010,08,16,03,47,17.40
2010,08,16,03,48,17.40
2010,08,16,03,49,17.30
2010,08,16,03,50,17.30
2010,08,16,03,51,17.30
2010,08,16,03,52,17.30
2010,08,16,03,53,17.30
2010,08,16,03,54,17.30
2010,08,16,03,55,17.20
2010,08,16,03,56,17.20
2010,08,16,03,57,17.20
2010,08,16,03,58,17.20
2010,08,16,03,59,17.20
2010,08,16,04,00,17.20
2010,08,16,04,01,17.20
2010,08,16,04,02,17.20
2010,08,16,04,03,17.20
2010,08,16,04,04,17.20
2010,08,16,04,05,17.10
2010,08,16,04,06,17.10
2010,08,16,04,07,17.10
2010,08,16,04,08,17.10
2010,08,16,04,09,17.10
2010,08,16,04,10,17.10
2010,08,16,04,11,17.00
2010,08,16,04,12,17.00
2010,08,16,04,13,17.00
2010,08,16,04,14,17.00
2010,08,16,04,15,16.90
2010,08,16,04,16,16.90
2010,08,16,04,17,16.90
2010,08,16,04,18,17.00
2010,08,16,04,19,17.00
2010,08,16,04,20,17.10
2010,08,16,04,21,17.10
2010,08,16,04,22,17.10
2010,08,16,04,23,17.10
2010,08,16,04,24,17.10
2010,08,16,04,25,17.00
2010,08,16,04,26,17.00
2010,08,16,04,27,16.90
2010,08,16,04,28,16.90
2010,08,16,04,29,16.90
2010,08,16,04,30,16.90
2010,08,16,04,31,16.90
2010,08,16,04,32,16.80
2010,08,16,04,33,16.80
2010,08,16,04,34,16.80
2010,08,16,04,35,16.80
2010,08,16,04,36,16.80
2010,08,16,04,37,16.80
2010,08,16,04,38,16.80
2010,08,16,04,39,16.80
2010,08,16,04,40,16.80
2010,08,16,04,41,16.80
2010,08,16,04,42,16.80
2010,08,16,04,43,16.80
2010,08,16,04,44,16.80
2010,08,16,04,45,16.70
2010,08,16,04,46,16.70
2010,08,16,04,47,16.70
2010,08,16,04,48,16.70
2010,08,16,04,49,16.70
2010,08,16,04,50,16.70
2010,08,16,04,51,16.70
2010,08,16,04,52,16.60
2010,08,16,04,53,16.60
2010,08,16,04,54,16.60
2010,08,16,04,55,16.60
2010,08,16,04,56,16.60
2010,08,16,04,57,16.60
2010,08,16,04,58,16.70
2010,08,16,04,59,16.70
2010,08,16,05,00,16.70
2010,08,16,05,01,16.70
2010,08,16,05,02,16.70
2010,08,16,05,03,16.70
2010,08,16,05,04,16.70
2010,08,16,05,05,16.70
2010,08,16,05,06,16.70
2010,08,16,05,07,16.70
2010,08,16,05,08,16.70
2010,08,16,05,09,16.70
2010,08,16,05,10,16.60
2010,08,16,05,11,16.60
2010,08,16,05,12,16.60
2010,08,16,05,13,16.60
2010,08,16,05,14,16.60
2010,08,16,05,15,16.60
2010,08,16,05,16,16.60
2010,08,16,05,17,16.50
2010,08,16,05,18,16.50
2010,08,16,05,19,16.50
2010,08,16,05,20,16.50
2010,08,16,05,21,16.50
2010,08,16,05,22,16.50
2010,08,16,05,23,16.50
2010,08,16,05,24,16.50
2010,08,16,05,25,16.40
2010,08,16,05,26,16.40
2010,08,16,05,27,16.40
2010,08,16,05,28,16.40
2010,08,16,05,29,16.40
2010,08,16,05,30,16.40
2010,08,16,05,31,16.30
2010,08,16,05,32,16.30
2010,08,16,05,33,16.30
2010,08,16,05,34,16.30
2010,08,16,05,35,16.30
2010,08,16,05,36,16.30
2010,08,16,05,37,16.30
2010,08,16,05,38,16.20
2010,08,16,05,39,16.20
2010,08,16,05,40,16.20
2010,08,16,05,41,16.20
2010,08,16,05,42,16.20
2010,08,16,05,43,16.20
2010,08,16,05,44,16.10
2010,08,16,05,45,16.10
2010,08,16,05,46,16.10
2010,08,16,05,47,16.10
2010,08,16,05,48,16.10
2010,08,16,05,49,16.10
2010,08,16,05,50,16.10
2010,08,16,05,51,16.10
2010,08,16,05,52,16.00
2010,08,16,05,53,16.00
2010,08,16,05,54,16.00
2010,08,16,05,55,16.00
2010,08,16,05,56,16.00
2010,08,16,05,57,16.00
2010,08,16,05,58,16.00
2010,08,16,05,59,16.00
2010,08,16,06,00,16.00
2010,08,16,06,01,16.00
2010,08,16,06,02,16.10
2010,08,16,06,03,16.10
2010,08,16,06,04,16.10
2010,08,16,06,05,16.10
2010,08,16,06,06,16.10
2010,08,16,06,07,16.10
2010,08,16,06,08,16.10
2010,08,16,06,09,16.10
2010,08,16,06,10,16.10
2010,08,16,06,11,16.10
2010,08,16,06,12,16.10
2010,08,16,06,13,16.00
2010,08,16,06,14,16.00
2010,08,16,06,15,16.00
2010,08,16,06,16,16.00
2010,08,16,06,17,16.00
2010,08,16,06,18,16.00
2010,08,16,06,19,15.90
2010,08,16,06,20,15.90
2010,08,16,06,21,15.90
2010,08,16,06,22,15.90
2010,08,16,06,23,15.90
2010,08,16,06,24,15.90
2010,08,16,06,25,15.90
2010,08,16,06,26,15.90
2010,08,16,06,27,15.90
2010,08,16,06,28,15.90
2010,08,16,06,29,15.90
2010,08,16,06,30,15.90
2010,08,16,06,31,15.90
2010,08,16,06,32,15.90
2010,08,16,06,33,15.90
2010,08,16,06,34,15.90
2010,08,16,06,35,15.90
2010,08,16,06,36,15.90
2010,08,16,06,37,15.90
2010,08,16,06,38,16.00
2010,08,16,06,39,16.00
2010,08,16,06,40,16.00
2010,08,16,06,41,16.00
2010,08,16,06,42,16.00
2010,08,16,06,43,16.00
2010,08,16,06,44,16.00
2010,08,16,06,45,16.00
2010,08,16,06,46,16.00
2010,08,16,06,47,15.90
2010,08,16,06,48,15.90
2010,08,16,06,49,15.90
2010,08,16,06,50,15.90
2010,08,16,06,51,15.90
2010,08,16,06,52,15.90
2010,08,16,06,53,15.90
2010,08,16,06,54,15.90
2010,08,16,06,55,16.00
2010,08,16,06,56,16.00
2010,08,16,06,57,16.00
2010,08,16,06,58,16.00
2010,08,16,06,59,16.10
2010,08,16,07,00,16.10
2010,08,16,07,01,16.10
2010,08,16,07,02,16.10
2010,08,16,07,03,16.10
2010,08,16,07,04,16.10
2010,08,16,07,05,16.20
2010,08,16,07,06,16.20
2010,08,16,07,07,16.20
2010,08,16,07,08,16.20
2010,08,16,07,09,16.20
2010,08,16,07,10,16.20
2010,08,16,07,11,16.20
2010,08,16,07,12,16.20
2010,08,16,07,13,16.30
2010,08,16,07,14,16.30
2010,08,16,07,15,16.30
2010,08,16,07,16,16.50
2010,08,16,07,17,16.50
2010,08,16,07,18,16.60
2010,08,16,07,19,16.70
2010,08,16,07,20,16.70
2010,08,16,07,21,16.70
2010,08,16,07,22,16.70
2010,08,16,07,23,16.80
2010,08,16,07,24,16.80
2010,08,16,07,25,16.80
2010,08,16,07,26,16.80
2010,08,16,07,27,16.90
2010,08,16,07,28,16.90
2010,08,16,07,29,17.00
2010,08,16,07,30,17.10
2010,08,16,07,31,17.10
2010,08,16,07,32,17.20
2010,08,16,07,33,17.20
2010,08,16,07,34,17.20
2010,08,16,07,35,17.30
2010,08,16,07,36,17.30
2010,08,16,07,37,17.40
2010,08,16,07,38,17.40
2010,08,16,07,39,17.50
2010,08,16,07,40,17.70
2010,08,16,07,41,17.80
2010,08,16,07,42,17.80
2010,08,16,07,43,17.90
2010,08,16,07,44,18.00
2010,08,16,07,45,18.10
2010,08,16,07,46,18.10
2010,08,16,07,47,18.20
2010,08,16,07,48,18.30
2010,08,16,07,49,18.30
2010,08,16,07,50,18.40
2010,08,16,07,51,18.40
2010,08,16,07,52,18.50
2010,08,16,07,53,18.50
2010,08,16,07,54,18.60
2010,08,16,07,55,18.60
2010,08,16,07,56,18.70
2010,08,16,07,57,18.70
2010,08,16,07,58,18.80
2010,08,16,07,59,18.80
2010,08,16,08,00,19.00
2010,08,16,08,01,19.10
2010,08,16,08,02,19.20
2010,08,16,08,03,19.30
2010,08,16,08,04,19.30
2010,08,16,08,05,19.40
2010,08,16,08,06,19.50
2010,08,16,08,07,19.60
2010,08,16,08,08,19.70
2010,08,16,08,09,19.80
2010,08,16,08,10,19.90
2010,08,16,08,11,19.90
2010,08,16,08,12,20.00
2010,08,16,08,13,20.10
2010,08,16,08,14,20.20
2010,08,16,08,15,20.30
2010,08,16,08,16,20.40
2010,08,16,08,17,20.50
2010,08,16,08,18,20.70
2010,08,16,08,19,20.80
2010,08,16,08,20,20.90
2010,08,16,08,21,21.10
2010,08,16,08,22,21.20
2010,08,16,08,23,21.30
2010,08,16,08,24,21.40
2010,08,16,08,25,21.50
2010,08,16,08,26,21.60
2010,08,16,08,27,21.70
2010,08,16,08,28,21.70
2010,08,16,08,29,21.80
2010,08,16,08,30,21.80
2010,08,16,08,31,21.90
2010,08,16,08,32,22.00
2010,08,16,08,33,22.00
2010,08,16,08,34,22.10
2010,08,16,08,35,22.10
2010,08,16,08,36,22.10
2010,08,16,08,37,22.20
2010,08,16,08,38,22.30
2010,08,16,08,39,22.30
2010,08,16,08,40,22.40
2010,08,16,08,41,22.40
2010,08,16,08,42,22.60
2010,08,16,08,43,22.70
2010,08,16,08,44,22.80
2010,08,16,08,45,22.90
2010,08,16,08,46,23.00
2010,08,16,08,47,23.00
2010,08,16,08,48,23.10
2010,08,16,08,49,23.10
2010,08,16,08,50,23.10
2010,08,16,08,51,23.10
2010,08,16,08,52,23.20
2010,08,16,08,53,23.20
2010,08,16,08,54,23.30
2010,08,16,08,55,23.30
2010,08,16,08,56,23.30
2010,08,16,08,57,23.40
2010,08,16,08,58,23.40
2010,08,16,08,59,23.50
2010,08,16,09,00,23.50
2010,08,16,09,01,23.60
2010,08,16,09,02,23.60
2010,08,16,09,03,23.60
2010,08,16,09,04,23.60
2010,08,16,09,05,23.50
2010,08,16,09,06,23.40
2010,08,16,09,07,23.40
2010,08,16,09,08,23.30
2010,08,16,09,09,23.30
2010,08,16,09,10,23.20
2010,08,16,09,11,23.20
2010,08,16,09,12,23.20
2010,08,16,09,13,23.20
2010,08,16,09,14,23.10
2010,08,16,09,15,23.10
2010,08,16,09,16,23.10
2010,08,16,09,17,23.00
2010,08,16,09,18,23.00
2010,08,16,09,19,23.10
2010,08,16,09,20,23.10
2010,08,16,09,21,23.10
2010,08,16,09,22,23.20
2010,08,16,09,23,23.30
2010,08,16,09,24,23.40
2010,08,16,09,25,23.50
2010,08,16,09,26,23.60
2010,08,16,09,27,23.70
2010,08,16,09,28,23.80
2010,08,16,09,29,23.90
2010,08,16,09,30,24.00
2010,08,16,09,31,24.00
2010,08,16,09,32,24.10
2010,08,16,09,33,24.10
2010,08,16,09,34,24.10
2010,08,16,09,35,24.10
2010,08,16,09,36,24.20
2010,08,16,09,37,24.20
2010,08,16,09,38,24.20
2010,08,16,09,39,24.20
2010,08,16,09,40,24.20
2010,08,16,09,41,24.20
2010,08,16,09,42,24.20
2010,08,16,09,43,24.20
2010,08,16,09,44,24.20
2010,08,16,09,45,24.10
2010,08,16,09,46,24.00
2010,08,16,09,47,23.90
2010,08,16,09,48,23.90
2010,08,16,09,49,23.90
2010,08,16,09,50,23.90
2010,08,16,09,51,23.90
2010,08,16,09,52,24.00
2010,08,16,09,53,24.00
2010,08,16,09,54,24.00
2010,08,16,09,55,24.00
2010,08,16,09,56,24.00
2010,08,16,09,57,24.00
2010,08,16,09,58,24.10
2010,08,16,09,59,24.10
2010,08,16,10,00,24.10
2010,08,16,10,01,24.10
2010,08,16,10,02,24.20
2010,08,16,10,03,24.20
2010,08,16,10,04,24.30
2010,08,16,10,05,24.40
2010,08,16,10,06,24.40
2010,08,16,10,07,24.40
2010,08,16,10,08,24.50
2010,08,16,10,09,24.60
2010,08,16,10,10,24.70
2010,08,16,10,11,24.80
2010,08,16,10,12,24.90
2010,08,16,10,13,25.00
2010,08,16,10,14,25.10
2010,08,16,10,15,25.20
2010,08,16,10,16,25.30
2010,08,16,10,17,25.50
2010,08,16,10,18,25.60
2010,08,16,10,19,25.70
2010,08,16,10,20,25.80
2010,08,16,10,21,25.90
2010,08,16,10,22,25.90
2010,08,16,10,23,26.00
2010,08,16,10,24,26.10
2010,08,16,10,25,26.10
2010,08,16,10,26,26.10
2010,08,16,10,27,26.10
2010,08,16,10,28,26.10
2010,08,16,10,29,26.10
2010,08,16,10,30,26.10
2010,08,16,10,31,26.10
2010,08,16,10,32,26.00
2010,08,16,10,33,26.00
2010,08,16,10,34,25.90
2010,08,16,10,35,25.90
2010,08,16,10,36,25.80
2010,08,16,10,37,25.80
2010,08,16,10,38,25.70
2010,08,16,10,39,25.70
2010,08,16,10,40,25.80
2010,08,16,10,41,25.90
2010,08,16,10,42,25.90
2010,08,16,10,43,26.00
2010,08,16,10,44,26.10
2010,08,16,10,45,26.20
2010,08,16,10,46,26.30
2010,08,16,10,47,26.30
2010,08,16,10,48,26.30
2010,08,16,10,49,26.30
2010,08,16,10,50,26.40
2010,08,16,10,51,26.40
2010,08,16,10,52,26.50
2010,08,16,10,53,26.60
2010,08,16,10,54,26.60
2010,08,16,10,55,26.70
2010,08,16,10,56,26.80
2010,08,16,10,57,26.80
2010,08,16,10,58,26.80
2010,08,16,10,59,26.90
2010,08,16,11,00,27.00
2010,08,16,11,01,27.10
2010,08,16,11,02,27.20
2010,08,16,11,03,27.30
2010,08,16,11,04,27.40
2010,08,16,11,05,27.50
2010,08,16,11,06,27.60
2010,08,16,11,07,27.60
2010,08,16,11,08,27.60
2010,08,16,11,09,27.70
2010,08,16,11,10,27.70
2010,08,16,11,11,27.70
2010,08,16,11,12,27.80
2010,08,16,11,13,27.80
2010,08,16,11,14,27.80
2010,08,16,11,15,27.80
2010,08,16,11,16,27.80
2010,08,16,11,17,27.90
2010,08,16,11,18,27.90
2010,08,16,11,19,27.80
2010,08,16,11,20,27.80
2010,08,16,11,21,27.70
2010,08,16,11,22,27.60
2010,08,16,11,23,27.50
2010,08,16,11,24,27.50
2010,08,16,11,25,27.40
2010,08,16,11,26,27.40
2010,08,16,11,27,27.50
2010,08,16,11,28,27.60
2010,08,16,11,29,27.60
2010,08,16,11,30,27.60
2010,08,16,11,31,27.50
2010,08,16,11,32,27.50
2010,08,16,11,33,27.60
2010,08,16,11,34,27.60
2010,08,16,11,35,27.60
2010,08,16,11,36,27.70
2010,08,16,11,37,27.70
2010,08,16,11,38,27.70
2010,08,16,11,39,27.70
2010,08,16,11,40,27.70
2010,08,16,11,41,27.70
2010,08,16,11,42,27.80
2010,08,16,11,43,27.80
2010,08,16,11,44,27.80
2010,08,16,11,45,27.70
2010,08,16,11,46,27.80
2010,08,16,11,47,27.90
2010,08,16,11,48,27.90
2010,08,16,11,49,28.00
2010,08,16,11,50,28.00
2010,08,16,11,51,28.00
2010,08,16,11,52,28.00
2010,08,16,11,53,28.00
2010,08,16,11,54,27.90
2010,08,16,11,55,27.80
2010,08,16,11,56,27.70
2010,08,16,11,57,27.70
2010,08,16,11,58,27.60
2010,08,16,11,59,27.60
2010,08,16,12,00,27.50
2010,08,16,12,01,27.40
2010,08,16,12,02,27.30
2010,08,16,12,03,27.20
2010,08,16,12,04,27.10
2010,08,16,12,05,27.10
2010,08,16,12,06,27.10
2010,08,16,12,07,27.00
2010,08,16,12,08,26.90
2010,08,16,12,09,26.80
2010,08,16,12,10,26.70
2010,08,16,12,11,26.60
2010,08,16,12,12,26.60
2010,08,16,12,13,26.50
2010,08,16,12,14,26.50
2010,08,16,12,15,26.50
2010,08,16,12,16,26.60
2010,08,16,12,17,26.60
2010,08,16,12,18,26.60
2010,08,16,12,19,26.70
2010,08,16,12,20,26.70
2010,08,16,12,21,26.60
2010,08,16,12,22,26.60
2010,08,16,12,23,26.60
2010,08,16,12,24,26.60
2010,08,16,12,25,26.60
2010,08,16,12,26,26.60
2010,08,16,12,27,26.60
2010,08,16,12,28,26.70
2010,08,16,12,29,26.70
2010,08,16,12,30,26.80
2010,08,16,12,31,26.90
2010,08,16,12,32,27.00
2010,08,16,12,33,27.10
2010,08,16,12,34,27.10
2010,08,16,12,35,27.10
2010,08,16,12,36,27.20
2010,08,16,12,37,27.20
2010,08,16,12,38,27.30
2010,08,16,12,39,27.40
2010,08,16,12,40,27.50
2010,08,16,12,41,27.50
2010,08,16,12,42,27.50
2010,08,16,12,43,27.50
2010,08,16,12,44,27.40
2010,08,16,12,45,27.40
2010,08,16,12,46,27.40
2010,08,16,12,47,27.40
2010,08,16,12,48,27.40
2010,08,16,12,49,27.40
2010,08,16,12,50,27.50
2010,08,16,12,51,27.50
2010,08,16,12,52,27.50
2010,08,16,12,53,27.60
2010,08,16,12,54,27.60
2010,08,16,12,55,27.60
2010,08,16,12,56,27.60
2010,08,16,12,57,27.60
2010,08,16,12,58,27.60
2010,08,16,12,59,27.60
2010,08,16,13,00,27.70
2010,08,16,13,01,27.70
2010,08,16,13,02,27.80
2010,08,16,13,03,27.90
2010,08,16,13,04,28.00
2010,08,16,13,05,28.00
2010,08,16,13,06,28.10
2010,08,16,13,07,28.10
2010,08,16,13,08,28.20
2010,08,16,13,09,28.20
2010,08,16,13,10,28.30
2010,08,16,13,11,28.40
2010,08,16,13,12,28.30
2010,08,16,13,13,28.30
2010,08,16,13,14,28.30
2010,08,16,13,15,28.30
2010,08,16,13,16,28.20
2010,08,16,13,17,28.20
2010,08,16,13,18,28.20
2010,08,16,13,19,28.20
2010,08,16,13,20,28.30
2010,08,16,13,21,28.30
2010,08,16,13,22,28.40
2010,08,16,13,23,28.40
2010,08,16,13,24,28.50
2010,08,16,13,25,28.60
2010,08,16,13,26,28.60
2010,08,16,13,27,28.60
2010,08,16,13,28,28.50
2010,08,16,13,29,28.40
2010,08,16,13,30,28.40
2010,08,16,13,31,28.40
2010,08,16,13,32,28.40
2010,08,16,13,33,28.60
2010,08,16,13,34,28.60
2010,08,16,13,35,28.70
2010,08,16,13,36,28.80
2010,08,16,13,37,28.90
2010,08,16,13,38,28.90
2010,08,16,13,39,29.00
2010,08,16,13,40,29.10
2010,08,16,13,41,29.00
2010,08,16,13,42,28.90
2010,08,16,13,43,28.90
2010,08,16,13,44,28.90
2010,08,16,13,45,28.90
2010,08,16,13,46,28.90
2010,08,16,13,47,28.80
2010,08,16,13,48,28.80
2010,08,16,13,49,28.70
2010,08,16,13,50,28.60
2010,08,16,13,51,28.60
2010,08,16,13,52,28.50
2010,08,16,13,53,28.40
2010,08,16,13,54,28.40
2010,08,16,13,55,28.40
2010,08,16,13,56,28.40
2010,08,16,13,57,28.40
2010,08,16,13,58,28.40
2010,08,16,13,59,28.40
2010,08,16,14,00,28.40
2010,08,16,14,01,28.40
2010,08,16,14,02,28.40
2010,08,16,14,03,28.50
2010,08,16,14,04,28.50
2010,08,16,14,05,28.60
2010,08,16,14,06,28.70
2010,08,16,14,07,28.70
2010,08,16,14,08,28.70
2010,08,16,14,09,28.60
2010,08,16,14,10,28.60
2010,08,16,14,11,28.50
2010,08,16,14,12,28.40
2010,08,16,14,13,28.40
2010,08,16,14,14,28.40
2010,08,16,14,15,28.40
2010,08,16,14,16,28.40
2010,08,16,14,17,28.50
2010,08,16,14,18,28.50
2010,08,16,14,19,28.60
2010,08,16,14,20,28.50
2010,08,16,14,21,28.40
2010,08,16,14,22,28.40
2010,08,16,14,23,28.40
2010,08,16,14,24,28.50
2010,08,16,14,25,28.50
2010,08,16,14,26,28.60
2010,08,16,14,27,28.50
2010,08,16,14,28,28.60
2010,08,16,14,29,28.60
2010,08,16,14,30,28.50
2010,08,16,14,31,28.50
2010,08,16,14,32,28.40
2010,08,16,14,33,28.30
2010,08,16,14,34,28.30
2010,08,16,14,35,28.30
2010,08,16,14,36,28.20
2010,08,16,14,37,28.10
2010,08,16,14,38,28.20
2010,08,16,14,39,28.30
2010,08,16,14,40,28.30
2010,08,16,14,41,28.30
2010,08,16,14,42,28.30
2010,08,16,14,43,28.20
2010,08,16,14,44,28.10
2010,08,16,14,45,28.00
2010,08,16,14,46,28.00
2010,08,16,14,47,28.00
2010,08,16,14,48,28.00
2010,08,16,14,49,28.00
2010,08,16,14,50,28.10
2010,08,16,14,51,28.10
2010,08,16,14,52,28.10
2010,08,16,14,53,28.20
2010,08,16,14,54,28.30
2010,08,16,14,55,28.30
2010,08,16,14,56,28.30
2010,08,16,14,57,28.30
2010,08,16,14,58,28.30
2010,08,16,14,59,28.30
2010,08,16,15,00,28.30
2010,08,16,15,01,28.30
2010,08,16,15,02,28.30
2010,08,16,15,03,28.30
2010,08,16,15,04,28.30
2010,08,16,15,05,28.30
2010,08,16,15,06,28.30
2010,08,16,15,07,28.30
2010,08,16,15,08,28.30
2010,08,16,15,09,28.30
2010,08,16,15,10,28.40
2010,08,16,15,11,28.50
2010,08,16,15,12,28.60
2010,08,16,15,13,28.60
2010,08,16,15,14,28.50
2010,08,16,15,15,28.50
2010,08,16,15,16,28.50
2010,08,16,15,17,28.40
2010,08,16,15,18,28.40
2010,08,16,15,19,28.40
2010,08,16,15,20,28.40
2010,08,16,15,21,28.40
2010,08,16,15,22,28.40
2010,08,16,15,23,28.50
2010,08,16,15,24,28.40
2010,08,16,15,25,28.40
2010,08,16,15,26,28.50
2010,08,16,15,27,28.50
2010,08,16,15,28,28.60
2010,08,16,15,29,28.60
2010,08,16,15,30,28.60
2010,08,16,15,31,28.70
2010,08,16,15,32,28.70
2010,08,16,15,33,28.80
2010,08,16,15,34,28.80
2010,08,16,15,35,28.90
2010,08,16,15,36,28.90
2010,08,16,15,37,28.90
2010,08,16,15,38,29.00
2010,08,16,15,39,29.10
2010,08,16,15,40,29.10
2010,08,16,15,41,29.10
2010,08,16,15,42,29.00
2010,08,16,15,43,28.90
2010,08,16,15,44,28.80
2010,08,16,15,45,28.70
2010,08,16,15,46,28.70
2010,08,16,15,47,28.70
2010,08,16,15,48,28.70
2010,08,16,15,49,28.60
2010,08,16,15,50,28.60
2010,08,16,15,51,28.50
2010,08,16,15,52,28.50
2010,08,16,15,53,28.50
2010,08,16,15,54,28.50
2010,08,16,15,55,28.50
2010,08,16,15,56,28.60
2010,08,16,15,57,28.60
2010,08,16,15,58,28.60
2010,08,16,15,59,28.60
2010,08,16,16,00,28.50
2010,08,16,16,01,28.50
2010,08,16,16,02,28.50
2010,08,16,16,03,28.60
2010,08,16,16,04,28.60
2010,08,16,16,05,28.70
2010,08,16,16,06,28.70
2010,08,16,16,07,28.70
2010,08,16,16,08,28.70
2010,08,16,16,09,28.70
2010,08,16,16,10,28.70
2010,08,16,16,11,28.80
2010,08,16,16,12,28.80
2010,08,16,16,13,28.70
2010,08,16,16,14,28.70
2010,08,16,16,15,28.80
2010,08,16,16,16,28.90
2010,08,16,16,17,28.90
2010,08,16,16,18,28.90
2010,08,16,16,19,28.90
2010,08,16,16,20,28.80
2010,08,16,16,21,28.70
2010,08,16,16,22,28.70
2010,08,16,16,23,28.60
2010,08,16,16,24,28.50
2010,08,16,16,25,28.40
2010,08,16,16,26,28.40
2010,08,16,16,27,28.50
2010,08,16,16,28,28.50
2010,08,16,16,29,28.50
2010,08,16,16,30,28.50
2010,08,16,16,31,28.50
2010,08,16,16,32,28.50
2010,08,16,16,33,28.50
2010,08,16,16,34,28.40
2010,08,16,16,35,28.40
2010,08,16,16,36,28.30
2010,08,16,16,37,28.40
2010,08,16,16,38,28.40
2010,08,16,16,39,28.50
2010,08,16,16,40,28.60
2010,08,16,16,41,28.50
2010,08,16,16,42,28.50
2010,08,16,16,43,28.40
2010,08,16,16,44,28.30
2010,08,16,16,45,28.30
2010,08,16,16,46,28.20
2010,08,16,16,47,28.10
2010,08,16,16,48,28.10
2010,08,16,16,49,28.10
2010,08,16,16,50,28.10
2010,08,16,16,51,28.10
2010,08,16,16,52,28.20
2010,08,16,16,53,28.30
2010,08,16,16,54,28.40
2010,08,16,16,55,28.40
2010,08,16,16,56,28.50
2010,08,16,16,57,28.60
2010,08,16,16,58,28.60
2010,08,16,16,59,28.60
2010,08,16,17,00,28.60
2010,08,16,17,01,28.60
2010,08,16,17,02,28.70
2010,08,16,17,03,28.70
2010,08,16,17,04,28.70
2010,08,16,17,05,28.70
2010,08,16,17,06,28.70
2010,08,16,17,07,28.70
2010,08,16,17,08,28.70
2010,08,16,17,09,28.70
2010,08,16,17,10,28.80
2010,08,16,17,11,28.80
2010,08,16,17,12,28.90
2010,08,16,17,13,29.00
2010,08,16,17,14,29.10
2010,08,16,17,15,29.20
2010,08,16,17,16,29.20
2010,08,16,17,17,29.20
2010,08,16,17,18,29.20
2010,08,16,17,19,29.20